Hourly Data Report for July 11, 2021

GORE BAY CLIMATE
ONTARIO
Current Station Operator: ECCC - MSC

45°53'00.000" N
82°34'00.000" W
188.60 m
6092920
71956
TZE

Download Data

Hourly Data (July 2021)
Hourly Data Report for July 11, 2021
TIME
LST
Temp Definition
°C
Dew Point Definition
°C
Rel Hum Definition
%
Precip. Amount Definition
mm

Wind Dir Definition
10's deg

Wind Spd Definition
km/h
Visibility Definition
km
Stn Press Definition
kPa
Hmdx Definition


Wind Chill Definition


Weather Definition


00:00 15.5 11.1 75 0.0 22 7   99.53     LegendNANA
01:00 12.9 10.2 84 0.0 23 3   99.52     LegendNANA
02:00 13.2 10.5 84 0.0 8 1   99.51     LegendNANA
03:00 12.5 10.5 87 0.0 4 7   99.51     LegendNANA
04:00 11.2 9.1 87 0.0 11 5   99.52     LegendNANA
05:00 10.4 8.9 90 0.0 12 7   99.51     LegendNANA
06:00 13.8 10.5 81 0.0 7 3   99.53     LegendNANA
07:00 17.5 12.3 71 0.0 7 5   99.53     LegendNANA
08:00 20.5 10.4 53 0.0 6 3   99.54     LegendNANA
09:00 20.2 10.3 53 0.0 3 9   99.53     LegendNANA
10:00 22.7 10.4 46 0.0 4 6   99.55     LegendNANA
11:00 23.4 8.9 39 0.0 1 8   99.57     LegendNANA
12:00 24.4 6.9 33 0.0 34 9   99.56     LegendNANA
13:00 25.4 9.5 37 0.0 29 10   99.55 26   LegendNANA
14:00 25.6 9.5 36 0.0 2 4   99.51 27   LegendNANA
15:00 25.3 9.3 36 0.0 1 8   99.52 26   LegendNANA
16:00 25.0 8.8 36 0.0 23 12   99.52 26   LegendNANA
17:00 25.3 9.5 37 0.0 24 10   99.51 26   LegendNANA
18:00 24.1 10.7 43 0.0 22 11   99.50 26   LegendNANA
19:00 22.8 11.6 49 0.0 20 8   99.52 25   LegendNANA
20:00 21.6 10.2 48 0.0 18 3   99.53     LegendNANA
21:00 19.5 10.4 56 0.0 4 5   99.57     LegendNANA
22:00 17.9 14.0 78 0.0 2 4   99.61     LegendNANA
23:00 14.9 11.8 82 0.0 4 2   99.64     LegendNANA

Notes on Data Quality.

Legend

  • E = Estimated
  • M = Missing
  • NA = Not Available*
  • [empty] = Indicates an unobserved value
Date modified: